Location: ?????????
(38.5999°N, 22.7695°E)
Time: 05:27:51
(UTC+00:00)

PAYLOAD A - Pass Details

Date: 06 August 2024
Orbit: 690 x 831 km, 98.5° (Epoch: 09 September)

Event Time Altitude Azimuth Distance (km) Brightness Sun altitude
Rises 02:33:19 0° 8° (N) 3,251 7.9 -11.6°
Reaches altitude 10° 02:35:41 10° 5° (N) 2,298 7.0 -11.2°
Maximum altitude 02:40:38 58° 287° (WNW) 861 4.1 -10.4°
Drops below altitude 10° 02:45:21 10° 209° (SSW) 2,198 5.9 -9.6°
Enters shadow 02:45:52 - 208° (SSW) 2,401 6.1 -9.5°
